Weather observations for the past three days for
De Kalb Taylor Municipal Airport
Imperial (Metric)
Date Time (cdt) Wind (mph) Vis. (mi.) Weather Sky Cond. Temperature (ºF) Relative Humidity Wind Chill (°F) Heat Index (°F) Pressure Precipitation (in)
Air Dwpt 6 hour altimeter (in) sea level (mb) 1 hr 3 hr 6 hr
Max. Min.
16 16:15 W 29 G 52 7.00 Mostly Cloudy and Windy BKN060 BKN070 80.4 61.9 53% 82 29.88 0.0
16 15:55 SW 22 G 30 10.00 Partly Cloudy and Breezy SCT065 SCT070 89.6 63 41% 90 29.84 0.0
16 15:35 SW 20 G 29 10.00 Fair CLR 91.8 61.9 37% 92 29.84 0.0
16 15:15 SW 23 G 29 10.00 Partly Cloudy and Breezy SCT055 91.9 61.2 36% 92 29.84 0.0
16 14:55 SW 23 G 28 10.00 Partly Cloudy and Breezy SCT055 90.5 62.2 39% 91 29.84 0.0
16 14:35 SW 24 G 31 10.00 Partly Cloudy and Breezy SCT050 91.6 62.4 38% 92 29.85 0.0
16 14:15 SW 16 G 28 10.00 Partly Cloudy SCT050 90.1 63.1 41% 91 29.85 0.0
16 13:55 SW 25 G 29 10.00 Partly Cloudy and Breezy SCT050 91.2 64 41% 93 29.86 0.0
16 13:35 SW 20 G 28 10.00 Partly Cloudy SCT048 90 64.4 43% 92 29.86 0.0
16 13:15 S 21 G 29 10.00 Fair and Breezy CLR 89.6 64.4 43% 91 29.86 0.0
16 12:55 SW 20 G 29 10.00 Fair CLR 89.4 65.7 89.4 69.6 45% 92 29.87 0.0
16 12:35 S 23 G 30 10.00 Fair and Breezy CLR 89.4 65.1 45% 91 29.87 0.0
16 12:15 S 18 G 26 10.00 Fair CLR 88.3 64.8 46% 90 29.88 0.0
16 11:55 S 20 10.00 Fair CLR 87.6 64.6 46% 89 29.89 0.0
16 11:35 S 21 G 25 10.00 Fair and Breezy CLR 86.2 63.7 47% 87 29.89 0.0
16 11:15 S 21 G 26 10.00 Fair and Breezy CLR 85.3 63.3 48% 86 29.89 0.0
16 10:55 S 24 G 28 10.00 Fair and Breezy CLR 84 62.2 48% 85 29.9 0.0
16 10:35 S 20 G 26 10.00 Fair CLR 83.7 61.3 47% 84 29.9 0.0
16 10:15 S 22 G 28 10.00 Fair and Breezy CLR 81.3 59.5 48% 82 29.91 0.0
16 09:55 S 21 10.00 Fair and Breezy CLR 80.6 58.3 47% 81 29.92 0.0
16 09:35 S 20 G 25 10.00 Partly Cloudy SCT055 SCT080 78.8 56.8 47% 80 29.91 0.0
16 09:15 S 18 G 24 10.00 Fair CLR 76.1 55 48% 78 29.92 0.0
16 08:35 S 20 G 25 10.00 Partly Cloudy SCT046 SCT050 SCT065 74.1 53.2 48% 29.92 0.0
16 08:15 S 22 G 28 10.00 Partly Cloudy and Breezy SCT046 SCT050 73.9 52.3 47% 29.92 0.0
16 07:55 S 22 G 29 10.00 Fair and Breezy CLR 73 51.4 47% 29.93 0.0
16 07:35 S 23 10.00 Fair and Breezy CLR 71.8 51.1 48% 29.93 0.0
16 07:15 S 20 G 24 10.00 Fair CLR 70.7 50.7 49% 29.94 0.0
16 06:55 S 17 10.00 Fair CLR 69.6 50.4 69.8 67.5 51% 29.94 0.0
16 06:15 S 16 10.00 Partly Cloudy SCT060 SCT075 69.3 50.4 51% 29.94 0.0
16 05:55 S 16 G 20 10.00 Partly Cloudy SCT060 SCT075 SCT100 69.3 50 50% 29.95 0.0
16 05:35 S 15 G 20 10.00 Mostly Cloudy BKN060 BKN085 BKN100 69.3 49.6 50% 29.96 0.0
16 05:15 S 15 10.00 Overcast BKN065 OVC075 69.8 49.5 49% 29.96 0.0
16 04:55 S 14 10.00 Mostly Cloudy BKN065 69.3 49.6 50% 29.96 0.0
16 04:35 SE 14 10.00 Partly Cloudy SCT065 68.2 49.5 51% 29.95 0.0
16 04:15 S 12 10.00 Fair CLR 68.2 49.1 51% 29.96 0.0
16 03:55 SE 10 10.00 Fair CLR 68 48.9 51% 29.96 0.0
16 03:35 SE 13 10.00 Fair CLR 68.4 48.6 49% 29.95 0.0
16 03:15 SE 10 10.00 Fair CLR 68.4 48.6 49% 29.95 0.0
16 02:55 SE 12 10.00 Fair CLR 68 49.1 51% 29.96 0.0
16 02:35 SE 10 10.00 Partly Cloudy SCT120 67.6 49.3 52% 29.96 0.0
16 02:15 SE 10 10.00 Mostly Cloudy BKN120 68.5 49.3 50% 29.96 0.0
16 01:55 SE 13 10.00 Partly Cloudy SCT120 68 49.1 51% 29.97 0.0
16 01:35 SE 9 10.00 Fair CLR 68.2 49.1 51% 29.98 0.0
16 01:15 SE 10 10.00 Fair CLR 69.4 48.6 48% 29.98 0.0
16 00:55 SE 8 10.00 Fair CLR 69.3 48.6 81.5 69.3 48% 29.98 0.0
16 00:35 SE 9 10.00 Fair CLR 70.2 48.6 46% 29.98 0.0
16 00:15 SE 10 10.00 Fair CLR 70.7 48.4 45% 29.99 0.0
15 23:55 SE 10 10.00 Fair CLR 71.2 48.6 45% 29.99 0.0
15 23:35 SE 9 10.00 Fair CLR 71.6 49.1 45% 29.99 0.0
15 23:15 SE 9 10.00 Fair CLR 72.1 49.1 44% 29.99 0.0
15 22:55 SE 10 10.00 Fair CLR 72.9 49.1 43% 29.99 0.0
15 22:35 SE 12 10.00 Fair CLR 73.6 49.3 42% 29.99 0.0
15 22:15 SE 10 10.00 Fair CLR 74.3 49.3 41% 29.99 0.0
15 21:55 SE 12 10.00 Fair CLR 74.1 50.2 43% 29.99 0.0
15 21:35 SE 10 10.00 Fair CLR 74.8 51.1 43% 29.98 0.0
15 21:15 SE 9 10.00 Fair CLR 75.4 51.8 44% 78 29.98 0.0
15 20:55 SE 12 10.00 Fair CLR 76.3 52 43% 78 29.98 0.0
15 20:35 SE 9 10.00 Fair CLR 76.8 52.2 42% 78 29.97 0.0
15 20:15 SE 9 10.00 Fair CLR 77.5 52.2 41% 79 29.97 0.0
15 19:55 S 7 10.00 Fair CLR 78.4 52.3 40% 79 29.97 0.0
15 19:35 S 8 10.00 Fair CLR 79.7 52.2 38% 80 29.97 0.0
15 19:15 SE 12 10.00 Fair CLR 81.1 50.5 35% 80 29.97 0.0
15 18:55 SE 13 10.00 Fair CLR 81.5 49.6 84.7 79 33% 80 29.96 0.0
15 18:35 SE 14 10.00 Fair CLR 80.8 48.7 33% 80 29.98 0.0
15 18:15 SE 15 G 20 10.00 Fair CLR 82 48.7 31% 81 29.97 0.0
15 17:55 SE 12 10.00 Fair CLR 82.6 48.9 31% 81 29.98 0.0
15 17:35 S 10 G 17 10.00 Fair CLR 82 49.5 32% 81 30.01 0.0
15 17:15 S 10 10.00 Fair CLR 82.6 47.7 30% 81 30.03 0.0
15 16:55 S 10 10.00 Fair CLR 84.2 47.3 28% 82 30.04 0.0
15 16:35 S 10 10.00 Fair CLR 82.6 47.7 30% 81 30.05 0.0
15 16:15 S 8 G 20 10.00 Fair CLR 83.7 46 27% 81 30.05 0.0
15 15:55 S 13 10.00 Fair CLR 84.4 46.9 27% 82 30.05 0.0
15 15:35 S 12 G 20 10.00 Fair CLR 84 45.1 26% 82 30.06 0.0
15 15:15 SW 12 G 21 10.00 Fair CLR 84.2 47.8 28% 82 30.06 0.0
15 14:55 S 6 10.00 Fair CLR 83.5 47.1 28% 81 30.07 0.0
15 14:35 S 7 G 10 10.00 Fair CLR 82.2 46 28% 80 30.07 0.0
15 14:15 S 12 10.00 Fair CLR 81.9 47.1 30% 80 30.07 0.0
15 13:55 S 7 10.00 Fair CLR 81.5 50.9 35% 81 30.07 0.0
15 13:35 S 5 10.00 Fair CLR 79.7 51.6 38% 80 30.08 0.0
15 13:15 S 7 10.00 Fair CLR 79.3 52.3 39% 79 30.08 0.0
15 12:55 S 9 10.00 Fair CLR 80.2 52.2 80.2 62.2 38% 80 30.09 0.0
15 12:35 SW 5 10.00 Fair CLR 79.7 54 41% 80 30.1 0.0
15 12:15 SE 7 10.00 Fair CLR 79.3 54.3 42% 80 30.11 0.0
15 11:55 S 8 10.00 Fair CLR 78.1 54.9 45% 79 30.1 0.0
15 11:35 S 9 10.00 Fair CLR 78.1 55.8 46% 79 30.1 0.0
15 11:15 S 8 10.00 Fair CLR 75.9 55.6 49% 78 30.11 0.0
15 10:55 SE 9 10.00 Fair CLR 74.7 54.9 50% 30.11 0.0
15 10:35 SE 8 10.00 Fair CLR 72.3 55.2 55% 30.11 0.0
15 10:15 SE 7 10.00 Fair CLR 70.5 54.5 57% 30.11 0.0
15 09:55 SE 10 10.00 Fair CLR 69.8 54 57% 30.12 0.0
15 09:35 SE 8 10.00 Fair CLR 69.6 53.8 57% 30.12 0.0
15 09:15 E 6 10.00 Fair CLR 69.4 53.6 57% 30.12 0.0
15 08:55 SE 10 10.00 Fair CLR 69.6 53.2 56% 30.12 0.0
15 08:35 E 7 10.00 Fair CLR 68 52.7 58% 30.13 0.0
15 08:15 E 5 10.00 Fair CLR 66.6 52.2 60% 30.14 0.0
15 07:55 NE 5 10.00 Fair CLR 64.8 51.4 62% 30.13 0.0
15 07:35 NE 5 10.00 Fair CLR 64.4 50.7 61% 30.13 0.0
15 07:15 NE 5 10.00 Fair CLR 64 49.8 60% 30.12 0.0
15 06:55 E 6 10.00 Fair CLR 62.1 49.1 62.1 55.4 63% 30.12 0.0
15 06:35 NE 6 10.00 Fair CLR 60.1 48.4 65% 30.12 0.0
15 06:15 NE 5 10.00 Fair CLR 59.5 47.5 65% 30.12 0.0
15 05:55 NE 6 10.00 Fair CLR 57.4 46.8 68% 30.11 0.0
15 05:35 NE 6 10.00 Fair CLR 56.7 45.7 67% 30.1 0.0
15 05:15 NE 5 10.00 Fair CLR 56.3 45.5 67% 30.1 0.0
15 04:55 NE 6 10.00 Fair CLR 56.3 45.5 67% 30.1 0.0
15 04:35 NE 6 10.00 Fair CLR 57.7 44.1 61% 30.1 0.0
15 04:15 N 5 10.00 Fair CLR 58.5 43.7 58% 30.11 0.0
15 03:55 N 3 10.00 Fair CLR 57.2 43.2 60% 30.11 0.0
15 03:35 NE 6 10.00 Fair CLR 57.6 42.8 58% 30.09 0.0
15 03:15 N 5 10.00 Fair CLR 57.2 42.4 58% 30.09 0.0
15 02:55 NE 5 10.00 Fair CLR 56.5 42.4 60% 30.09 0.0
15 02:35 NE 5 10.00 Fair CLR 56.1 42.8 61% 30.08 0.0
15 02:15 NE 7 10.00 Fair CLR 55.8 42.8 62% 30.08 0.0
15 01:55 NE 6 10.00 Fair CLR 57.2 42.4 58% 30.09 0.0
15 01:35 NE 6 10.00 Fair CLR 59.2 41.7 53% 30.1 0.0
15 01:15 NE 5 10.00 Fair CLR 58.6 42.4 55% 30.1 0.0
15 00:55 NE 5 10.00 Fair CLR 59 42.4 75.7 58.1 54% 30.1 0.0
15 00:35 NE 6 10.00 Fair CLR 58.8 42.8 55% 30.09 0.0
15 00:15 NE 8 10.00 Fair CLR 59.5 42.8 54% 30.1 0.0
14 23:55 NE 6 10.00 Fair CLR 58.8 44.1 58% 30.11 0.0
14 23:35 NE 8 10.00 Fair CLR 60.3 43.9 55% 30.11 0.0
14 23:15 NE 5 10.00 Fair CLR 60.4 45 57% 30.11 0.0
14 22:55 NE 6 10.00 Fair CLR 60.8 45 56% 30.1 0.0
14 22:35 NE 7 10.00 Fair CLR 62.8 45.3 53% 30.1 0.0
14 22:15 NE 8 10.00 Fair CLR 63.3 46.8 55% 30.1 0.0
14 21:55 NE 7 10.00 Fair CLR 64 47.7 55% 30.09 0.0
14 21:35 NE 7 10.00 Fair CLR 64.8 48.4 56% 30.08 0.0
14 21:15 NE 7 10.00 Fair CLR 66.4 47.7 51% 30.07 0.0
14 20:55 E 8 10.00 Fair CLR 68.9 46.9 46% 30.07 0.0
14 20:35 E 8 10.00 Fair CLR 70.3 46.4 43% 30.06 0.0
14 20:15 E 9 10.00 Fair CLR 71.4 46.9 42% 30.06 0.0
14 19:55 E 9 10.00 Fair CLR 72.7 47.3 41% 30.06 0.0
14 19:35 E 12 10.00 Fair CLR 73.6 47.3 39% 30.06 0.0
14 19:15 NE 13 10.00 Partly Cloudy SCT001 74.7 47.5 38% 30.05 0.0
14 18:55 NE 12 10.00 Partly Cloudy SCT001 75.9 48.6 85.3 75.9 38% 78 30.04 0.0
14 18:35 NE 13 10.00 Partly Cloudy SCT001 77.2 48.7 37% 78 30.04 0.0
14 18:15 NE 12 10.00 Fair CLR 77.9 49.1 36% 78 30.04 0.0
14 17:55 NE 13 10.00 Fair CLR 79.7 48.7 34% 79 30.04 0.0
14 17:35 NE 15 10.00 Fair CLR 79.3 50 36% 79 30.03 0.0
14 17:15 NE 13 G 22 10.00 Fair CLR 80.2 50.9 36% 80 30.03 0.0
14 16:55 NE 18 10.00 Fair CLR 80.8 52 37% 80 30.02 0.0
14 16:35 NE 14 10.00 Fair CLR 83.1 51.3 33% 82 30.01 0.0
14 16:15 N 12 G 20 10.00 Fair CLR 83.5 41.2 22% 81 30.01 0.0
14 15:55 N 10 G 18 10.00 Fair CLR 84.2 39.6 21% 81 30.01 0.0
14 15:35 NW 9 G 20 10.00 Fair CLR 83.7 40.5 22% 81 30 0.0
14 15:15 N 8 10.00 Fair CLR 83.7 40.8 22% 81 30 0.0
14 14:55 N 8 G 16 10.00 Fair CLR 84.4 40.8 21% 82 30 0.0
14 14:35 N 8 10.00 Fair CLR 83.1 37.2 19% 81 30.01 0.0
14 14:15 NW 9 G 17 10.00 Fair CLR 83.5 37.9 20% 81 30.01 0.0
14 13:55 NW 9 10.00 Fair CLR 84.6 40.3 21% 82 30.01 0.0
14 13:35 NW 13 G 18 10.00 Fair CLR 84.6 41.2 22% 82 30.01 0.0
14 13:15 NW 12 G 17 10.00 Fair CLR 84.7 43.5 24% 82 30.01 0.0
14 12:55 NW 10 G 23 10.00 Fair CLR 84 41.5 85.1 66.6 22% 81 30.01 0.0
14 12:35 NW 13 G 24 10.00 Fair CLR 84.4 39.9 21% 82 30 0.0
14 12:15 NW 16 G 24 10.00 Fair CLR 84.7 37.8 19% 82 30 0.0
14 11:55 W 10 G 20 10.00 Fair CLR 83.8 43.5 24% 81 30 0.0
14 11:35 NW 9 G 20 10.00 Fair CLR 83.3 44.6 26% 81 30.01 0.0
14 11:15 NW 10 10.00 Fair CLR 81.7 46.6 29% 80 30.01 0.0
14 10:55 W 8 10.00 Fair CLR 81.9 51.4 35% 81 30.01 0.0
14 10:35 NW 8 10.00 Fair CLR 81.1 48.7 32% 80 30.01 0.0
14 10:15 N 10 10.00 Fair CLR 80.1 46.9 31% 79 30.01 0.0
14 09:55 NW 12 G 18 10.00 Fair CLR 79 49.1 35% 79 30 0.0
14 09:35 NW 12 10.00 Fair CLR 78.3 50.2 37% 79 30.01 0.0
14 09:15 NW 8 10.00 Fair CLR 77 50.7 40% 78 30.01 0.0
14 08:55 NW 7 10.00 Fair CLR 75.4 53.1 46% 78 30.01 0.0
14 08:35 NW 8 10.00 Fair CLR 73.6 54 50% 30 0.0
14 08:15 NW 5 10.00 Fair CLR 72.5 54.5 53% 30 0.0
14 07:55 N 6 10.00 Fair CLR 71.4 54.9 56% 29.99 0.0
14 07:35 N 6 10.00 Fair CLR 70 54.9 59% 29.99 0.0
14 07:15 Calm 10.00 Fair CLR 68 55.4 64% 29.99 0.0
14 06:55 NW 3 10.00 Fair CLR 66.4 55.6 70 61.2 68% 29.98 0.0
14 06:35 NW 3 10.00 Fair CLR 64.2 56.8 77% 29.98 0.0
14 06:15 NW 3 10.00 Fair CLR 62.1 55.8 80% 29.97 0.0
14 05:55 NW 3 10.00 Fair CLR 61.5 55.2 80% 29.97 0.0
14 05:35 NW 6 10.00 Fair CLR 62.8 55.8 78% 29.96 0.0
14 05:15 NW 3 10.00 Fair CLR 62.4 55.8 79% 29.96 0.0
14 04:55 Calm 10.00 Fair CLR 64.4 56.3 75% 29.96 0.0
14 04:35 NW 6 10.00 Fair CLR 64.6 56.3 75% 29.96 0.0
14 04:15 NW 5 10.00 Fair CLR 64.9 56.3 74% 29.95 0.0
14 03:55 NW 5 10.00 Fair CLR 65.3 56.7 74% 29.95 0.0
14 03:35 NW 6 10.00 Fair CLR 64.9 56.8 75% 29.95 0.0
14 03:15 NW 6 10.00 Fair CLR 65.8 56.8 73% 29.94 0.0
14 02:55 NW 7 10.00 Fair CLR 66.4 57 72% 29.94 0.0
14 02:35 NW 7 10.00 Fair CLR 66.2 56.8 72% 29.94 0.0
14 02:15 NW 6 10.00 Fair CLR 67.3 56.7 69% 29.93 0.0
14 01:55 NW 5 10.00 Fair CLR 68.2 56.5 66% 29.92 0.0
14 01:35 NW 7 10.00 Fair CLR 69.8 56.8 64% 29.92 0.0
14 01:15 N 7 10.00 Fair CLR 70 56.7 63% 29.91 0.0
14 00:55 N 5 10.00 Fair CLR 68.9 56.1 86.2 68.9 64% 29.91 0.0
14 00:35 N 6 10.00 Fair CLR 70.5 56.3 61% 29.91 0.0
14 00:15 N 7 10.00 Fair CLR 69.8 56.3 62% 29.91 0.0
13 23:55 N 7 10.00 Fair CLR 71.4 56.3 59% 29.91 0.0
13 23:35 N 5 10.00 Fair CLR 72.7 56.3 57% 29.91 0.0
13 23:15 N 6 10.00 Fair CLR 74.1 56.3 54% 29.9 0.0
13 22:55 N 7 10.00 Fair CLR 74.5 56.1 53% 29.9 0.0
13 22:35 N 6 10.00 Fair CLR 74.5 55.8 52% 29.9 0.0
13 22:15 N 6 10.00 Fair CLR 75.2 54.7 49% 78 29.9 0.0
13 21:55 N 6 10.00 Partly Cloudy SCT110 77 54.5 46% 78 29.9 0.0
13 21:35 N 6 10.00 Mostly Cloudy BKN110 77.9 53.8 43% 79 29.89 0.0
13 21:15 N 5 10.00 Partly Cloudy SCT100 79.2 53.1 40% 79 29.88 0.0
13 20:55 N 5 10.00 Fair CLR 79.9 53.4 40% 80 29.88 0.0
13 20:35 N 7 10.00 Fair CLR 79.3 53.1 40% 80 29.86 0.0
13 20:15 N 6 10.00 Fair CLR 81.3 50.4 34% 80 29.85 0.0
13 19:55 N 3 10.00 Fair CLR 83.3 50 32% 82 29.85 0.0
13 19:35 NE 5 10.00 Fair CLR 83.1 54.7 38% 82 29.84 0.0
13 19:15 NE 3 10.00 Fair CLR 85.3 49.6 29% 83 29.84 0.0
13 18:55 NE 5 10.00 Fair CLR 85.8 46.8 26% 83 29.84 0.0
13 18:35 NE 3 10.00 Fair CLR 86.2 46.8 25% 83 29.84 0.0
13 18:15 N 3 10.00 Fair CLR 86.5 45.3 24% 84 29.84 0.0
13 17:55 N 3 10.00 Fair CLR 86.5 49.6 28% 84 29.83 0.0
13 17:35 N 12 G 17 10.00 Fair CLR 86.5 49.1 27% 84 29.85 0.0
13 17:15 N 9 10.00 Fair CLR 87.8 51.6 29% 85 29.86 0.0
13 16:55 N 10 10.00 Partly Cloudy SCT095 86.2 51.8 31% 84 29.86 0.0
Date Time (cdt) Wind (mph) Vis. (mi.) Weather Sky Cond. Air Dwpt Max. Min. Relative Humidity Wind Chill (°F) Heat Index (°F) altimeter (in) sea level (mb) 1 hr 3 hr 6 hr
6 hour
Temperature (ºF) Pressure Precipitation (in)